Probability
0 0 0 0 0 0 0 0 0 0 0 0 0 0 0 0 0 0 3 3 6 13 39 52 55 45 45 48 48 48 45 45 48 42 32 29 26 35 35 42 42 42 35 32 35 32 26 19 23
0 0 0 0 0 0 0 0 0 0 0 0 0 0 0 0 0 6 6 10 3 19 42 42 55 48 45 45 45 45 39 39 39 39 32 32 29 29 39 35 39 39 35 32 26 19 23 23 19
0 0 0 0 0 0 0 0 0 0 0 0 0 0 0 0 0 3 3 3 3 6 23 35 48 45 45 42 35 35 35 35 35 35 35 35 26 23 32 35 32 35 32 29 23 19 19 23 16
0 0 0 0 0 0 0 0 0 0 0 0 0 0 0 0 0 3 3 3 3 10 16 32 45 42 39 39 32 35 35 35 35 35 32 29 26 29 29 32 29 32 29 23 23 19 19 13 16
0 0 0 0 0 0 0 0 0 0 0 0 0 0 0 0 0 3 3 3 3 6 13 29 42 35 35 39 35 39 39 32 35 32 29 26 29 26 29 29 26 29 23 23 23 16 16 10 13
0 0 0 0 0 0 0 0 0 0 0 0 0 0 0 0 0 3 3 3 3 6 10 16 32 32 35 35 35 35 35 39 32 26 19 19 26 29 29 29 26 29 23 26 16 13 10 13 10
0 0 0 0 0 0 0 0 0 0 0 0 0 0 0 0 0 0 3 3 3 3 3 10 19 19 19 23 29 29 35 35 29 26 23 26 26 29 29 26 29 23 16 19 16 16 13 13 10
0 0 0 0 0 0 0 0 0 0 0 0 0 0 0 0 0 0 0 3 3 3 3 3 6 6 10 6 13 19 19 19 19 16 16 16 16 26 26 23 23 19 13 13 16 19 16 13 10
0 0 0 0 0 0 0 0 0 0 0 0 0 0 0 0 0 0 0 0 0 3 6 3 6 3 3 3 3 3 6 10 10 3 3 3 3 3 6 6 13 16 19 13 13 19 23 6 3
0 0 0 0 0 0 0 0 0 0 0 0 0 0 0 0 0 0 0 0 0 0 0 0 3 3 3 3 3 3 3 3 3 3 0 0 0 0 3 3 3 6 6 10 13 16 13 0 0
0 0 0 0 0 0 0 0 0 0 0 0 0 0 0 0 0 0 0 3 3 0 0 0 0 3 3 3 3 3 0 0 0 0 0 0 0 0 0 0 0 0 0 0 0 3 0 0 0
0 0 0 0 0 0 0 0 0 0 0 0 0 0 0 0 0 0 0 0 3 0 0 0 0 0 0 0 3 0 0 0 0 0 0 0 0 0 0 0 0 0 0 0 0 0 0 0 0
0 0 0 0 0 0 0 0 0 0 0 0 0 0 0 0 0 0 0 0 0 3 3 0 0 0 0 0 0 0 0 0 0 0 0 0 0 0 0 0 0 0 0 0 0 0 0 0 0
0 0 0 0 0 0 0 0 0 0 0 0 0 0 0 0 0 0 0 0 0 3 3 3 3 0 0 0 0 0 0 0 0 0 0 0 0 0 0 0 0 0 0 0 0 0 0 0 0
0 0 0 0 0 0 0 0 0 0 0 0 0 0 0 0 0 0 0 0 0 0 0 3 3 3 0 0 0 0 0 0 0 0 0 0 0 0 0 0 0 0 0 0 0 0 0 0 0
0 0 0 0 0 0 0 0 0 0 0 0 0 0 0 0 0 0 0 0 0 0 0 3 3 3 0 0 0 0 0 0 0 0 0 0 0 0 0 0 0 0 0 0 0 0 0 0 0
0 0 0 0 0 0 0 0 0 0 0 0 0 0 0 0 0 0 0 0 0 0 0 0 3 0 0 0 0 0 0 0 0 0 0 0 0 0 0 0 0 0 0 0 0 0 0 0 0
0 0 0 0 0 0 0 0 0 0 0 0 0 0 0 0 0 0 0 0 0 0 0 0 0 0 0 0 0 0 0 0 0 0 0 0 0 0 0 0 0 0 0 0 0 0 0 0 0
0 0 0 0 0 0 0 0 0 0 0 0 0 0 0 0 0 0 0 0 0 0 0 0 0 0 0 0 0 0 0 0 0 0 0 0 0 0 0 0 0 0 0 0 0 0 0 0 0
0 0 0 0 0 0 0 0 0 0 0 0 0 0 0 0 0 0 0 0 0 0 0 0 0 0 0 0 0 0 0 0 0 0 0 0 0 0 0 0 0 0 0 0 0 0 0 0 0
0 0 0 0 0 0 0 0 0 0 0 0 0 0 0 0 0 0 0 0 0 0 0 0 0 0 0 0 0 0 0 0 0 0 0 0 0 0 0 0 0 0 0 0 0 0 0 0 0
0 0 0 0 0 0 0 0 0 0 0 0 0 0 0 0 0 0 0 0 0 0 0 0 0 0 0 0 0 0 0 0 0 0 0 0 0 0 0 0 0 0 0 0 0 0 0 0 0
0 0 0 0 0 0 0 0 0 0 0 0 0 0 0 0 0 0 0 0 0 0 0 0 0 0 0 0 0 0 0 0 0 0 0 0 0 0 0 0 0 0 0 0 0 0 0 0 0
0 0 0 0 0 0 0 0 0 0 0 0 0 0 0 0 0 0 0 0 0 0 0 0 0 0 0 0 0 0 0 0 0 0 0 0 0 0 0 0 0 0 0 0 0 0 0 0 0
0 0 0 0 0 0 0 0 0 0 0 0 0 0 0 0 0 0 0 0 0 0 0 0 0 0 0 0 0 0 0 0 0 0 0 0 0 0 0 0 0 0 0 0 0 0 0 0 0
0 0 0 0 0 0 0 0 0 0 0 0 0 0 0 0 0 0 0 0 0 0 0 0 0 0 0 0 0 0 0 0 0 0 0 0 0 0 0 0 0 0 0 0 0 0 0 0 0
0 0 0 0 0 0 0 0 0 0 0 0 0 0 0 0 0 0 0 0 0 0 0 0 0 0 0 0 0 0 0 0 0 0 0 0 0 0 0 0 0 0 0 0 0 0 0 0 0
0 0 0 0 0 0 0 0 0 0 0 0 0 0 0 0 0 0 0 0 0 0 0 0 0 0 0 0 0 0 0 0 0 0 0 0 0 0 0 0 0 0 0 0 0 0 0 0 0
0 0 0 0 0 0 0 0 0 0 0 0 0 0 0 0 0 0 0 0 0 0 0 0 0 0 0 0 0 0 0 0 0 0 0 0 0 0 0 0 0 0 0 0 0 0 0 0 0
0 0 0 0 0 0 0 0 0 0 0 0 0 0 0 0 0 0 0 0 0 0 0 0 0 0 0 0 0 0 0 0 0 0 0 0 0 0 0 0 0 0 0 0 0 0 0 0 0
Height
5832 5832 5833 5834 5835 5835 5835 5836 5836 5836 5836 5836 5836 5837 5838 5839 5840 5843 5842 5841 5841 5842 5842 5843 5844 5844 5845 5846 5847 5848 5848 5849 5850 5851 5851 5852 5853 5853 5854 5854 5855 5855 5856 5856 5857 5857 5858 5858 5859
5829 5830 5831 5831 5831 5831 5833 5833 5832 5833 5833 5833 5833 5834 5834 5835 5836 5837 5837 5837 5838 5839 5839 5840 5841 5841 5842 5843 5844 5845 5846 5847 5848 5848 5849 5850 5850 5851 5852 5852 5853 5854 5854 5855 5855 5856 5857 5857 5858
5826 5826 5828 5827 5827 5828 5829 5829 5829 5829 5829 5829 5830 5830 5831 5831 5832 5833 5833 5834 5834 5835 5836 5836 5837 5838 5839 5840 5841 5842 5843 5844 5845 5845 5846 5847 5848 5849 5849 5850 5851 5852 5852 5853 5853 5854 5855 5856 5856
5822 5823 5824 5824 5824 5825 5825 5825 5824 5825 5825 5826 5826 5826 5826 5827 5828 5829 5829 5830 5830 5831 5832 5832 5833 5834 5835 5836 5837 5838 5839 5840 5841 5842 5843 5844 5845 5846 5847 5847 5848 5849 5850 5850 5851 5852 5853 5854 5854
5819 5819 5820 5819 5820 5820 5820 5820 5820 5820 5821 5821 5821 5822 5822 5823 5823 5824 5825 5825 5826 5827 5828 5829 5829 5830 5831 5832 5833 5834 5835 5837 5838 5839 5840 5841 5841 5842 5843 5844 5845 5846 5847 5848 5849 5850 5851 5851 5852
5815 5815 5815 5815 5816 5816 5816 5816 5816 5816 5816 5816 5817 5817 5818 5818 5818 5819 5820 5821 5821 5822 5823 5824 5825 5826 5827 5828 5829 5830 5831 5833 5834 5835 5836 5837 5838 5839 5840 5841 5842 5843 5844 5845 5846 5847 5848 5849 5849
5811 5810 5810 5811 5811 5811 5812 5811 5811 5811 5811 5812 5812 5813 5813 5813 5814 5814 5815 5815 5816 5817 5818 5819 5820 5821 5822 5823 5824 5825 5827 5828 5829 5830 5831 5833 5834 5835 5836 5837 5838 5839 5840 5841 5842 5843 5844 5845 5846
5805 5806 5806 5806 5806 5806 5806 5806 5805 5806 5806 5806 5807 5807 5808 5808 5808 5809 5809 5810 5811 5812 5813 5814 5815 5816 5817 5818 5819 5821 5822 5823 5824 5825 5827 5828 5829 5830 5831 5833 5834 5835 5836 5837 5838 5839 5840 5841 5843
5800 5801 5800 5800 5800 5801 5800 5800 5800 5800 5800 5800 5800 5801 5802 5802 5802 5803 5804 5804 5805 5806 5807 5808 5809 5810 5812 5813 5814 5815 5816 5818 5819 5820 5821 5823 5824 5825 5827 5828 5829 5830 5832 5833 5834 5835 5836 5837 5838
5794 5795 5795 5795 5794 5794 5794 5794 5793 5793 5793 5793 5793 5793 5794 5795 5796 5797 5797 5798 5799 5800 5801 5802 5803 5804 5805 5807 5808 5809 5811 5812 5813 5815 5816 5817 5818 5820 5821 5823 5824 5825 5826 5828 5829 5830 5831 5833 5834
5788 5789 5789 5788 5787 5787 5787 5787 5786 5786 5786 5786 5786 5786 5787 5788 5789 5790 5790 5791 5792 5793 5794 5795 5796 5797 5798 5800 5801 5803 5804 5806 5807 5808 5810 5811 5812 5814 5815 5817 5818 5820 5821 5822 5824 5825 5826 5827 5829
5782 5782 5781 5781 5779 5779 5779 5779 5779 5778 5779 5779 5779 5779 5780 5781 5782 5783 5783 5784 5784 5785 5786 5787 5788 5790 5791 5792 5794 5796 5797 5799 5800 5802 5803 5805 5806 5808 5809 5810 5812 5814 5815 5816 5818 5819 5820 5822 5823
5775 5775 5774 5773 5772 5771 5770 5770 5770 5771 5771 5770 5771 5771 5772 5773 5774 5775 5775 5776 5777 5778 5778 5780 5781 5782 5783 5785 5786 5788 5790 5792 5793 5795 5796 5798 5799 5801 5802 5804 5805 5807 5808 5810 5811 5813 5814 5816 5817
5767 5767 5766 5765 5764 5762 5762 5762 5762 5763 5762 5762 5762 5763 5763 5764 5765 5766 5767 5767 5768 5769 5770 5771 5772 5773 5775 5776 5778 5780 5782 5784 5785 5787 5789 5790 5792 5794 5795 5797 5798 5800 5801 5803 5805 5806 5808 5809 5811
5758 5758 5757 5755 5754 5753 5753 5753 5753 5753 5752 5753 5753 5754 5754 5755 5755 5756 5757 5758 5759 5760 5760 5762 5763 5764 5766 5767 5769 5771 5773 5775 5777 5779 5781 5783 5784 5786 5788 5789 5791 5792 5794 5796 5798 5799 5801 5802 5804
5748 5747 5747 5747 5745 5744 5745 5744 5744 5743 5743 5743 5743 5744 5744 5745 5745 5746 5747 5748 5748 5749 5750 5752 5753 5754 5756 5758 5760 5761 5764 5766 5768 5770 5772 5774 5776 5778 5780 5782 5783 5785 5786 5788 5790 5792 5793 5795 5796
5739 5737 5737 5737 5735 5734 5734 5735 5735 5733 5733 5733 5733 5734 5734 5735 5735 5736 5736 5737 5738 5739 5740 5741 5742 5744 5746 5748 5749 5751 5754 5756 5758 5760 5763 5765 5767 5769 5772 5773 5775 5777 5778 5780 5782 5784 5785 5787 5789
5729 5727 5727 5726 5726 5725 5724 5724 5724 5722 5723 5723 5723 5724 5724 5724 5725 5725 5726 5727 5727 5728 5729 5730 5732 5733 5735 5737 5739 5741 5743 5746 5748 5750 5753 5755 5758 5760 5762 5765 5767 5768 5770 5772 5773 5775 5777 5779 5781
5719 5718 5717 5716 5715 5714 5713 5713 5713 5712 5712 5712 5712 5713 5713 5714 5714 5714 5715 5715 5716 5717 5718 5719 5721 5722 5724 5726 5728 5730 5733 5735 5737 5740 5743 5745 5747 5750 5753 5755 5757 5759 5761 5763 5765 5766 5768 5770 5772
5709 5707 5706 5706 5704 5702 5702 5701 5702 5701 5701 5701 5701 5702 5702 5702 5703 5703 5704 5704 5705 5706 5707 5709 5710 5711 5713 5715 5717 5719 5721 5724 5726 5729 5732 5735 5737 5740 5742 5745 5748 5750 5752 5753 5755 5757 5759 5761 5763
5699 5697 5696 5695 5693 5691 5689 5689 5690 5690 5689 5690 5690 5690 5690 5691 5691 5692 5692 5693 5694 5695 5696 5697 5699 5700 5701 5703 5705 5707 5709 5712 5715 5718 5721 5723 5726 5729 5732 5735 5737 5739 5742 5744 5746 5748 5749 5751 5753
5689 5687 5684 5683 5681 5679 5678 5676 5679 5678 5677 5677 5677 5677 5678 5678 5679 5680 5681 5681 5682 5683 5684 5685 5686 5688 5689 5691 5693 5695 5697 5700 5703 5705 5708 5711 5714 5718 5721 5724 5726 5729 5731 5733 5735 5738 5740 5741 5743
5678 5675 5673 5671 5669 5668 5666 5663 5666 5665 5665 5665 5664 5664 5665 5666 5666 5667 5668 5669 5670 5670 5671 5672 5674 5675 5677 5678 5680 5682 5684 5686 5689 5692 5696 5699 5702 5705 5709 5712 5715 5718 5720 5723 5725 5727 5729 5731 5733
5667 5665 5663 5660 5658 5656 5656 5653 5652 5653 5653 5653 5653 5652 5652 5653 5653 5654 5655 5656 5657 5658 5658 5660 5661 5662 5663 5665 5667 5669 5671 5673 5676 5679 5683 5687 5690 5693 5697 5700 5703 5706 5709 5711 5714 5716 5718 5720 5722
5659 5656 5652 5649 5647 5646 5645 5642 5641 5641 5641 5641 5641 5640 5640 5640 5641 5642 5643 5644 5645 5645 5646 5647 5648 5650 5651 5652 5654 5656 5658 5660 5663 5667 5670 5674 5678 5681 5685 5688 5691 5694 5697 5700 5702 5705 5707 5709 5711
5648 5646 5643 5640 5637 5636 5634 5631 5632 5631 5629 5629 5629 5628 5628 5628 5628 5629 5630 5631 5632 5633 5633 5634 5635 5637 5638 5639 5641 5643 5645 5648 5650 5654 5658 5661 5665 5669 5672 5676 5679 5682 5685 5688 5691 5693 5696 5698 5700
5639 5636 5633 5630 5626 5625 5623 5622 5621 5620 5618 5617 5617 5617 5616 5616 5616 5617 5618 5618 5619 5620 5620 5621 5622 5624 5625 5626 5628 5630 5633 5635 5638 5641 5645 5649 5653 5657 5660 5664 5667 5670 5673 5676 5679 5681 5684 5686 5689
5632 5628 5624 5620 5616 5614 5613 5612 5611 5609 5608 5606 5605 5605 5605 5605 5605 5605 5605 5606 5607 5607 5607 5608 5609 5610 5612 5613 5615 5617 5620 5622 5625 5628 5632 5636 5640 5644 5648 5651 5655 5658 5661 5664 5667 5670 5672 5674 5677
5623 5620 5615 5611 5608 5605 5602 5605 5601 5599 5597 5596 5595 5594 5593 5593 5593 5593 5594 5594 5594 5595 5595 5595 5596 5597 5598 5600 5602 5604 5607 5609 5612 5616 5620 5624 5627 5631 5635 5638 5642 5645 5649 5652 5655 5657 5660 5662 5664
5614 5610 5606 5603 5599 5595 5592 5595 5591 5589 5586 5585 5584 5583 5582 5582 5582 5582 5582 5582 5582 5583 5583 5583 5583 5584 5586 5588 5590 5592 5594 5597 5600 5604 5607 5611 5615 5619 5622 5626 5629 5633 5636 5639 5642 5645 5647 5650 5653
Wind_Speed
14 15 15 15 16 16 15 14 14 15 16 16 16 17 17 17 17 17 16 16 16 16 15 15 15 15 15 15 15 14 14 14 14 14 14 13 12 12 11 11 10 10 9 9 9 8 8 8 7
15 16 16 16 16 16 15 15 16 16 17 17 17 18 18 18 18 17 17 17 17 17 17 16 16 16 17 17 17 16 16 16 16 16 16 15 14 14 13 13 12 12 11 10 10 10 9 9 8
16 16 17 17 16 16 16 16 17 17 18 18 18 18 19 19 19 19 19 18 18 18 18 18 18 18 18 18 18 18 18 17 17 17 17 17 16 16 15 15 14 14 13 12 12 12 11 10 10
16 17 17 17 17 17 17 18 18 18 19 19 19 19 19 19 19 20 20 20 19 20 20 20 20 20 19 20 20 20 19 19 19 19 19 18 18 18 17 17 16 15 15 14 14 13 12 12 11
18 18 18 18 18 18 18 19 19 19 19 20 20 20 20 20 20 20 20 20 20 21 21 21 21 20 20 21 21 20 20 20 20 20 20 20 20 19 19 19 18 18 17 16 16 15 15 14 13
19 19 19 19 19 19 19 19 20 20 21 21 22 21 21 21 21 21 21 21 22 21 22 22 22 21 21 21 21 21 21 22 22 21 21 21 21 20 20 20 20 20 19 19 18 17 17 16 15
19 19 19 20 21 21 20 21 21 22 22 23 23 23 22 22 23 22 22 23 23 23 23 23 23 23 23 23 23 23 23 23 23 23 23 23 22 22 22 22 21 21 21 20 20 19 19 19 18
19 20 20 21 22 22 22 22 23 24 23 24 24 24 24 24 25 24 24 24 24 24 24 24 25 24 25 24 24 24 24 24 25 25 25 25 24 23 23 23 23 23 23 22 22 22 21 21 20
21 21 21 21 22 23 23 23 24 25 25 25 26 26 26 26 26 26 26 26 26 26 26 26 26 26 26 26 26 26 26 26 26 26 26 26 26 26 25 25 24 24 24 24 24 23 23 23 22
22 22 22 23 24 24 25 25 25 26 26 27 27 27 27 27 27 27 28 28 28 27 28 28 28 28 28 28 28 27 27 27 27 27 27 27 27 27 27 26 26 26 25 25 25 25 25 25 24
24 24 24 25 25 26 26 26 26 27 28 28 29 29 29 29 28 28 28 29 29 30 29 29 30 30 30 29 29 29 29 29 28 28 28 28 29 28 28 28 28 28 27 26 27 27 27 26 26
25 25 26 27 28 28 29 28 29 29 29 30 30 30 30 30 29 29 29 30 30 31 31 31 31 31 31 31 31 31 30 30 30 30 30 30 30 30 30 30 29 29 29 28 28 28 28 28 27
26 27 27 28 30 30 31 31 31 31 31 32 32 32 32 32 32 32 32 32 32 32 32 33 33 33 33 33 33 33 32 32 31 31 31 31 31 30 30 31 31 31 30 30 30 30 30 29 29
28 29 29 30 31 32 33 33 33 32 33 33 34 34 34 34 34 34 34 34 33 34 34 35 35 35 35 35 35 35 35 34 34 33 32 32 32 32 32 31 32 32 32 31 31 31 31 31 31
30 31 31 32 33 33 34 34 34 34 34 34 34 35 35 35 36 35 36 36 36 36 36 37 37 37 37 37 37 37 36 36 36 35 35 35 34 34 33 33 33 33 33 33 33 32 32 32 32
32 33 33 33 34 34 35 34 33 34 35 36 36 36 36 36 37 36 37 37 38 37 38 38 39 39 39 38 39 38 38 38 38 37 37 37 36 36 35 34 34 34 34 34 34 34 34 33 33
33 33 33 34 34 34 35 34 33 34 35 36 37 37 38 38 37 37 38 38 38 38 39 39 39 40 40 40 40 40 39 39 38 39 38 38 38 37 36 36 35 35 35 35 35 35 35 35 34
33 34 33 34 34 35 35 34 34 35 36 36 37 38 39 39 38 38 39 38 38 38 39 40 40 40 40 40 41 41 41 41 40 39 39 39 39 39 38 37 36 36 36 36 36 36 36 36 36
34 35 35 35 36 36 37 36 36 36 36 37 37 38 38 38 39 39 39 39 39 39 39 40 40 40 40 41 41 41 42 42 43 42 41 40 41 41 40 40 39 38 38 37 37 37 38 37 37
36 36 36 36 36 38 38 38 37 37 37 37 38 38 38 39 39 40 40 40 41 40 40 40 40 41 41 41 41 42 43 43 44 44 43 43 43 42 41 40 40 39 40 39 39 39 39 39 38
37 37 37 37 37 39 40 39 38 37 38 39 39 39 39 40 40 40 41 41 41 41 42 42 42 42 43 43 43 43 44 44 44 44 44 44 44 44 44 43 41 41 41 41 41 41 41 40 40
36 37 38 38 39 39 40 41 38 39 39 39 40 40 40 40 40 40 40 40 40 41 42 43 43 44 44 44 45 45 46 46 45 46 46 46 46 46 45 45 44 43 43 42 42 42 42 42 42
36 36 37 37 39 40 39 42 40 39 39 39 40 40 40 41 41 40 40 40 40 41 42 43 44 44 45 45 45 45 46 47 47 47 47 47 47 47 46 46 45 45 44 43 43 43 43 43 43
34 35 36 37 38 39 38 40 40 39 38 38 38 39 40 41 41 41 40 40 41 41 42 42 43 43 44 45 46 45 45 46 48 48 48 48 48 48 47 47 46 46 46 45 45 44 44 43 43
34 34 35 36 37 38 37 38 39 38 38 38 37 38 39 40 41 40 40 40 41 41 42 43 43 43 43 45 45 45 45 46 47 48 49 49 49 49 48 47 47 47 46 46 46 45 45 45 45
33 33 34 35 36 37 36 37 37 37 38 37 37 38 39 40 40 40 40 40 41 42 43 44 43 43 43 44 45 44 45 46 47 48 49 49 49 49 49 48 47 47 47 46 46 46 46 46 46
31 31 32 34 35 36 35 36 36 36 36 38 38 38 38 38 39 39 39 40 41 41 42 43 44 44 44 45 45 45 45 46 47 48 48 48 49 49 49 48 49 48 47 47 47 47 46 46 47
31 31 31 31 33 35 36 35 34 33 34 36 37 38 38 38 38 39 39 39 40 41 42 43 44 44 44 45 45 46 46 46 46 47 47 47 48 48 49 49 48 48 48 47 48 48 46 46 46
31 30 30 31 33 35 36 35 34 34 34 35 36 36 37 38 38 37 38 38 39 40 41 42 42 43 44 44 44 44 45 46 46 46 47 48 48 48 49 49 49 49 49 48 47 47 46 46 46
32 32 31 31 32 34 35 35 34 34 35 35 36 36 37 37 38 38 38 39 38 38 38 40 41 42 42 43 44 44 45 46 46 45 46 47 47 47 47 48 49 49 49 48 48 47 47 47 46
Wind_Direction
261 261 260 260 261 261 262 263 261 259 258 257 257 257 258 259 259 259 257 256 255 254 252 250 247 247 245 242 241 240 242 243 243 243 242 241 239 238 238 238 238 236 234 233 233 235 235 233 232
263 263 263 263 263 262 264 264 261 260 259 260 260 259 259 259 260 259 257 256 254 253 251 250 248 247 244 243 243 243 243 244 244 244 243 243 242 241 240 240 239 238 237 236 237 239 238 238 237
266 266 265 266 266 265 264 263 261 260 260 261 261 261 261 260 260 258 256 254 252 251 250 249 248 247 246 245 244 244 243 243 243 244 243 243 243 243 242 241 241 240 239 238 239 239 240 239 239
267 266 266 267 267 266 264 263 261 260 260 260 260 260 260 260 258 256 256 256 254 253 251 250 249 248 247 245 245 245 244 243 243 243 243 245 245 244 243 242 242 242 241 241 240 239 239 240 240
267 267 267 268 267 266 265 264 263 261 261 260 260 260 259 259 258 257 257 257 255 254 252 251 250 249 247 246 245 244 244 243 244 244 244 245 246 245 244 243 243 242 242 242 241 241 241 241 241
268 268 268 268 268 267 266 266 264 263 262 260 260 259 259 259 259 258 256 256 255 254 253 252 250 248 247 247 246 245 244 244 244 244 244 246 245 245 246 245 244 244 243 242 242 242 243 243 242
268 269 270 269 269 268 267 266 264 263 262 261 260 259 257 257 258 258 256 255 255 254 252 251 250 248 248 248 248 246 245 245 245 244 245 246 245 245 246 246 245 245 245 244 244 243 244 244 244
269 270 270 270 270 269 268 266 265 265 263 263 261 259 257 257 257 257 256 255 255 254 252 251 250 250 250 250 249 248 248 248 247 245 246 246 246 246 247 247 247 246 246 246 246 245 245 245 246
271 271 271 271 270 270 268 266 266 266 264 263 262 260 258 257 256 256 255 254 255 255 253 251 250 250 250 250 249 249 250 250 250 248 247 247 247 247 248 248 249 248 247 247 247 247 246 246 247
272 274 274 273 272 270 269 267 265 265 264 262 261 260 258 257 256 255 255 254 254 254 253 252 250 250 249 249 249 249 250 250 250 250 249 248 247 247 248 248 248 249 249 248 248 248 248 248 248
273 274 274 272 271 270 269 267 265 264 264 262 261 259 258 257 257 256 255 255 254 254 253 252 251 250 249 249 249 249 249 249 250 250 250 249 249 248 248 248 248 249 249 249 248 248 249 250 250
274 274 273 273 272 272 270 268 266 265 264 263 261 260 260 259 258 258 257 256 255 255 254 253 253 251 248 248 248 248 248 249 250 250 250 250 250 249 248 248 249 249 249 249 249 249 250 250 251
276 275 274 273 273 273 271 269 268 267 266 265 262 261 260 260 259 258 258 257 256 256 256 255 254 252 250 249 248 248 249 249 250 250 249 249 250 250 249 249 249 249 249 249 249 249 250 250 251
276 275 275 274 273 272 272 271 269 267 265 264 263 262 262 261 260 259 258 258 257 256 255 254 252 252 251 250 250 249 249 249 249 250 250 250 250 251 250 250 250 250 250 250 250 250 250 251 251
277 276 276 275 274 273 273 271 269 267 265 264 264 263 262 261 261 260 259 258 257 256 255 254 253 252 252 251 250 250 250 249 249 249 250 250 251 251 251 251 250 251 251 251 251 250 250 250 251
279 278 277 276 275 274 273 272 271 268 266 265 264 264 263 262 261 260 259 259 258 257 256 255 253 253 252 252 251 249 249 249 248 249 249 250 250 251 251 251 251 252 252 252 251 251 251 251 251
281 279 279 277 276 276 275 274 271 269 266 265 264 263 262 261 260 260 260 259 258 257 256 255 254 253 252 252 251 250 249 249 248 249 249 249 250 250 251 252 252 252 252 252 252 252 252 251 252
284 282 280 278 277 275 274 273 271 269 267 264 263 262 262 260 260 260 260 260 259 257 255 254 254 253 252 252 250 249 249 248 248 248 248 248 249 250 251 251 252 253 253 252 252 252 252 252 252
285 282 280 278 276 274 273 273 271 270 269 266 265 263 262 261 260 260 260 259 258 257 256 255 253 253 252 251 250 249 248 247 247 247 247 248 248 249 249 251 252 253 253 252 252 252 252 252 252
286 283 281 279 277 275 274 272 271 270 268 266 266 264 263 262 261 260 259 259 259 258 257 256 254 253 252 252 251 250 248 248 247 247 247 247 248 248 248 249 251 252 253 252 252 252 253 253 252
286 284 281 280 277 275 274 272 270 270 268 266 265 264 263 262 261 260 260 259 259 258 257 255 254 252 252 252 251 250 249 249 248 247 247 247 248 248 248 249 250 251 252 252 253 253 253 253 253
287 284 281 280 279 277 275 274 271 270 269 267 266 264 262 261 260 259 260 259 258 257 256 255 255 253 253 253 252 251 250 249 248 247 246 247 248 248 248 249 250 250 251 252 252 253 253 254 254
289 287 283 281 280 278 276 275 273 271 270 268 267 265 263 262 261 261 260 259 258 256 254 255 254 253 253 252 252 251 250 249 247 247 246 247 248 248 248 249 249 250 250 251 251 252 253 254 254
291 289 285 283 282 280 279 278 275 273 271 269 267 264 263 262 262 261 260 259 258 257 256 254 254 253 253 251 252 251 251 249 247 247 247 247 247 248 248 248 249 249 249 250 251 252 253 254 254
293 291 288 286 284 282 282 279 277 275 272 269 268 265 264 264 263 262 261 260 259 258 258 257 256 255 253 252 252 252 250 249 247 246 246 246 247 247 246 248 249 249 249 249 250 252 253 254 255
297 294 291 289 288 286 282 280 280 278 274 271 269 267 266 265 265 264 264 262 261 259 258 258 257 256 254 253 252 252 251 249 248 247 246 246 246 246 246 247 248 248 249 250 250 252 253 254 254
299 296 294 292 290 289 286 285 283 280 277 274 271 270 268 267 266 265 264 263 262 261 260 259 257 256 255 255 254 253 252 250 249 247 246 246 246 246 246 247 247 248 249 250 251 252 252 254 255
299 298 296 294 291 290 288 287 286 282 280 277 275 271 268 267 266 264 263 262 262 262 261 261 259 258 257 256 256 254 252 251 250 248 246 245 245 245 246 247 247 248 249 250 252 252 253 254 254
299 297 295 293 292 290 290 288 286 282 280 278 275 273 270 268 266 265 264 263 263 262 262 262 260 258 256 255 253 253 251 250 249 247 246 246 246 245 246 246 247 248 249 250 251 251 252 252 253
300 298 297 295 293 289 289 289 287 283 280 278 276 274 271 269 267 265 265 264 264 263 263 261 260 257 255 254 252 252 249 249 248 247 246 245 246 245 245 246 247 248 249 249 250 250 251 252 253